[[{"header":{"parameterUnit":"m.s-1","parameterCategory":1,"la1":30.2991,"la2":30.254,"lo1":-89.0895,"lo2":-89.0444,"dy":0.0017,"dx":0.0017,"nx":28,"ny":28,"refTime":"2024-06-08T21:00:00:Z","depth":0,"parameterNumber":2,"parameterNumberName":"U-component_of_WINDS"},"data":[0,0,0,0,0,0,0,0,0,0,0,0,0,0,0,0,0,0,0,0,0,0,0,0,0,0,0,0,0,0,0,0,0,0,0,0,0,0,0,0,0,0,0,0,0,0,0,0,0,0,0,0,0,0,0,0,0,0,0.878,0.8782,0,0.8963,0.8965,0.8967,0.9048,0.9048,0.9048,0.9048,0.9235,0.924,0.9245,0,0,0,0,0,0,0,0,0,0,0,0,0,0.8499,0.8504,0.878,0.8782,0.8785,0.8963,0.8965,0.8968,0.9048,0.9048,0.9048,0.9048,0.9233,0.9239,0.9246,0,0,0,0,0,0,0,0,0,0,0,0,0,0.8645,0.8506,0.878,0.8846,0.8854,0.8962,0.8965,0.8968,0.9048,0.9048,0.9048,0.9047,0.9231,0.9239,0.9246,0.9302,0,0,0.927,0.9274,0,0,0,0,0,0,0,0,0.8637,0.8656,0.8834,0.8842,0.8851,0.8983,0.8935,0.908,0.9049,0.8975,0.9048,0.9047,0.9151,0.9166,0.9201,0.9311,0.9319,0.9271,0.9276,0.9279,0.9281,0,0,0,0,0,0,0,0.8627,0.8648,0.8853,0.8837,0.8847,0.8867,0.8887,0.8963,0.9063,0.8981,0.8987,0.9008,0.9156,0.9193,0.9206,0.9321,0.9271,0.9278,0.9283,0.9286,0.9486,0.9486,0,0,0,0,0,0,0.8606,0.8639,0.8847,0.8858,0.8741,0.8872,0.8895,0.8941,0.9062,0.908,0.9008,0.9011,0.918,0.9196,0.9213,0.9286,0.9279,0.9286,0.9291,0.9485,0.9486,0.9487,0,0,0,0,0,0,0.86,0.8624,0.8839,0.8751,0.8779,0.8877,0.8928,0.8944,0.8982,0.9083,0.9101,0.9028,0.918,0.9202,0.9279,0.9293,0.929,0.9297,0.9484,0.9485,0.9486,0.9432,0,0,0,0,0,0,0.8591,0.8621,0.8643,0.875,0.8784,0.8903,0.8929,0.8948,0.8995,0.9001,0.9106,0.9123,0.9181,0.9267,0.9287,0.9304,0.9303,0.9484,0.9485,0.9486,0.9433,0.9431,0.9429,0,0,0,0,0,0.8581,0.8621,0.8644,0.8669,0.8814,0.8903,0.8923,0.8989,0.8996,0.9019,0.9084,0.912,0.9288,0.9274,0.9297,0.9317,0.9483,0.9484,0.9486,0.9434,0.9431,0.9429,0,0,0,0,0,0,0.8513,0.8636,0.8663,0.8739,0.881,0.8917,0.8948,0.8984,0.9055,0.9057,0.9137,0.916,0.923,0.9281,0.9264,0.9377,0.9389,0.9395,0.9341,0.9339,0.9338,0.9324,0.931,0,0,0,0,0,0.8506,0.8569,0.8673,0.873,0.8764,0.885,0.8891,0.8936,0.9013,0.9044,0.9114,0.9187,0.9257,0.9301,0.937,0.944,0.9464,0.9465,0.9463,0.9461,0.9465,0.9506,0.9507,0.9491,0.9491,0.9491,0,0,0.8494,0.8569,0.8604,0.8718,0.8779,0.8842,0.8875,0.894,0.8987,0.9054,0.9131,0.9185,0.9272,0.9345,0.9381,0.939,0.9475,0.9463,0.946,0.9466,0.9507,0.9509,0.951,0.9492,0.9492,0.9492,0,0,0.8505,0.8567,0.8622,0.8681,0.8772,0.8829,0.8841,0.8943,0.8981,0.906,0.9111,0.9168,0.9286,0.9346,0.9392,0.9423,0.9459,0.9443,0.9434,0.9472,0.9474,0.9475,0.9486,0.9489,0.9447,0.9447,0.9447,0,0.8478,0.8575,0.8645,0.8707,0.8756,0.8818,0.8874,0.8928,0.9037,0.9069,0.9077,0.9226,0.9289,0.9377,0.9384,0.9419,0.9436,0.9432,0.9468,0.947,0.9472,0.9484,0.9488,0.9445,0.9445,0.9445,0.9446,0,0.8538,0.8604,0.8637,0.874,0.8793,0.8851,0.8929,0.8973,0.9013,0.9068,0.9147,0.9225,0.9311,0.9335,0.9375,0.9429,0.9432,0.9452,0.9466,0.947,0.9483,0.9488,0.9441,0.9442,0.9443,0.9444,0,0,0.8511,0.8652,0.8663,0.8711,0.8815,0.8868,0.8928,0.9012,0.9049,0.9121,0.9174,0.9272,0.9292,0.9343,0.939,0.9424,0.9443,0.9441,0.9444,0.9439,0.9508,0.9492,0.9496,0.9467,0.9468,0.9469,0.9501,0,0.8536,0.8648,0.8712,0.8798,0.886,0.892,0.8973,0.9042,0.9095,0.9155,0.9213,0.9281,0.9302,0.9334,0.937,0.9433,0.9458,0.9432,0.9517,0.952,0.9494,0.9502,0.9486,0.9512,0.9506,0.9507,0.9507,0,0.858,0.8652,0.8743,0.884,0.8869,0.8915,0.8997,0.9054,0.9133,0.9169,0.9226,0.9273,0.9339,0.9346,0.9438,0.9419,0.9457,0.9493,0.9496,0.9507,0.9514,0.9514,0.9521,0.9525,0.9515,0.9515,0.9514,0,0.8552,0.8671,0.8741,0.878,0.8895,0.8926,0.8975,0.9054,0.9101,0.9172,0.9203,0.928,0.9323,0.9382,0.9448,0.9447,0.9533,0.9546,0.9565,0.9563,0.9581,0.958,0.9596,0.9605,0.9605,0.9605,0.9605,0,0.8573,0.8627,0.873,0.8773,0.8835,0.8907,0.8966,0.902,0.909,0.9144,0.92,0.925,0.9334,0.9394,0.9446,0.9514,0.9533,0.9564,0.9577,0.956,0.9556,0.9587,0.9587,0.9606,0.9606,0.9605,0.9605,0,0.8552,0.8623,0.8704,0.8806,0.8833,0.8874,0.8961,0.9005,0.906,0.9128,0.9148,0.9235,0.9309,0.938,0.9479,0.9513,0.9581,0.9599,0.9554,0.9562,0.9577,0.9574,0.9614,0.9623,0.9624,0.9624,0.9624,0,0.8561,0.8604,0.8711,0.8751,0.8799,0.8864,0.8911,0.8984,0.9031,0.9124,0.9157,0.9234,0.93,0.9414,0.9486,0.9562,0.9582,0.959,0.9594,0.9574,0.9582,0.9579,0.9584,0.9588,0.9588,0.9588,0.9588,0,0.857,0.8603,0.867,0.8748,0.8803,0.8868,0.8936,0.8965,0.9051,0.91,0.9176,0.9227,0.9328,0.9404,0.9487,0.9538,0.9577,0.9586,0.9594,0.9577,0.955,0.9565,0.955,0.9585,0.9585,0.9585,0.9585,0.9586,0.8566,0.8606,0.8687,0.8759,0.8817,0.8878,0.8925,0.8986,0.905,0.9138,0.9176,0.9252,0.933,0.9447,0.9496,0.9557,0.9567,0.9579,0.9582,0.9584,0.958,0.9539,0.9572,0.9573,0.9573,0.9573,0.9573,0,0.8577,0.8632,0.8698,0.879,0.8846,0.8878,0.8953,0.8998,0.9065,0.9134,0.9198,0.9284,0.9358,0.9435,0.9514,0.9547,0.9567,0.9565,0.9564,0.9575,0.9567,0.9552,0.9548,0.9548,0.9548,0.9548,0.9548,0.9548,0.859,0.8661,0.8703,0.8803,0.8858,0.8933,0.8973,0.903,0.9086,0.918,0.9242,0.9291,0.9364,0.9448,0.9517,0.9538,0.9564,0.9557,0.9583,0.9574,0.9576,0.9577,0.9564,0.9562,0.9562,0.9586,0.9586,0.9587]},{"header":{"parameterUnit":"m.s-1","parameterCategory":1,"la1":30.2991,"la2":30.254,"lo1":-89.0895,"lo2":-89.0444,"dy":0.0017,"dx":0.0017,"nx":28,"ny":28,"refTime":"2024-06-08T21:00:00:Z","depth":0,"parameterNumber":3,"parameterNumberName":"V-component_of_WINDS"},"data":[0,0,0,0,0,0,0,0,0,0,0,0,0,0,0,0,0,0,0,0,0,0,0,0,0,0,0,0,0,0,0,0,0,0,0,0,0,0,0,0,0,0,0,0,0,0,0,0,0,0,0,0,0,0,0,0,0,0,4.5201,4.5201,0,4.5174,4.5174,4.5173,4.5101,4.5099,4.5098,4.5096,4.5071,4.5071,4.5072,0,0,0,0,0,0,0,0,0,0,0,0,0,4.5194,4.5194,4.5201,4.5201,4.5201,4.5174,4.5174,4.5173,4.5101,4.5099,4.5098,4.5096,4.507,4.5071,4.5072,0,0,0,0,0,0,0,0,0,0,0,0,0,4.5185,4.5195,4.5202,4.5162,4.5158,4.5174,4.5174,4.5173,4.5102,4.5099,4.5097,4.5095,4.507,4.5071,4.5072,4.5126,0,0,4.5076,4.5076,0,0,0,0,0,0,0,0,4.5186,4.5185,4.5168,4.5164,4.516,4.5138,4.5161,4.5157,4.5102,4.5123,4.5096,4.5094,4.5095,4.5094,4.5094,4.5125,4.5124,4.5076,4.5077,4.5077,4.5077,0,0,0,0,0,0,0,4.5186,4.5186,4.5191,4.5168,4.5163,4.5146,4.5142,4.516,4.5123,4.5121,4.5116,4.5113,4.5093,4.5093,4.5093,4.5123,4.5076,4.5077,4.5077,4.5078,4.5197,4.5199,0,0,0,0,0,0,4.5192,4.5187,4.5191,4.519,4.5167,4.5148,4.5144,4.5148,4.5122,4.5116,4.5115,4.511,4.5092,4.5092,4.5092,4.5153,4.5077,4.5078,4.5079,4.5195,4.5198,4.52,0,0,0,0,0,0,4.5192,4.5193,4.5193,4.5187,4.5186,4.515,4.5156,4.5149,4.5149,4.5118,4.5111,4.5123,4.5091,4.509,4.5118,4.5151,4.5079,4.508,4.5192,4.5196,4.5199,4.5277,0,0,0,0,0,0,4.5193,4.5194,4.5213,4.5188,4.5186,4.5219,4.5158,4.515,4.5151,4.5144,4.5123,4.5117,4.5089,4.5117,4.5119,4.5152,4.508,4.5189,4.5193,4.5198,4.5271,4.5283,4.5293,0,0,0,0,0,4.5193,4.5237,4.5215,4.5216,4.521,4.5221,4.522,4.5185,4.5154,4.5173,4.5154,4.5118,4.5147,4.512,4.5122,4.5156,4.5186,4.5192,4.5197,4.5266,4.528,4.5292,0,0,0,0,0,0,4.5267,4.5233,4.5208,4.5245,4.5236,4.5208,4.5232,4.5201,4.5202,4.5195,4.5153,4.5149,4.5183,4.5172,4.5142,4.5207,4.5161,4.5167,4.5213,4.5226,4.5236,4.5239,4.5081,0,0,0,0,0,4.5288,4.5299,4.5268,4.5304,4.5301,4.5268,4.5271,4.5245,4.5235,4.5231,4.5213,4.5206,4.5213,4.5219,4.5224,4.5269,4.5264,4.5293,4.5304,4.5313,4.5319,4.5343,4.5356,4.5219,4.5219,4.5219,0,0,4.5331,4.5314,4.5323,4.5319,4.5309,4.5323,4.5265,4.5282,4.5291,4.5234,4.5259,4.5246,4.5234,4.5271,4.5287,4.5263,4.5356,4.532,4.5328,4.5329,4.535,4.5363,4.5375,4.5223,4.5222,4.5221,0,0,4.5417,4.5404,4.5433,4.5424,4.541,4.5388,4.5395,4.5372,4.536,4.5385,4.5342,4.5354,4.5367,4.5361,4.5359,4.5443,4.5411,4.5446,4.5503,4.5527,4.5538,4.5547,4.5578,4.5589,4.5452,4.5453,4.5453,0,4.5472,4.549,4.5451,4.5471,4.5471,4.5419,4.5448,4.5442,4.5431,4.5432,4.5406,4.5422,4.541,4.5445,4.5466,4.5466,4.5474,4.5449,4.5539,4.5548,4.5556,4.5585,4.5597,4.5457,4.5457,4.5456,4.5456,0,4.5559,4.5572,4.5597,4.5587,4.559,4.5614,4.558,4.5587,4.5562,4.5543,4.5569,4.5553,4.5554,4.5561,4.5536,4.5593,4.5579,4.5546,4.55,4.5574,4.5601,4.5611,4.5463,4.5462,4.546,4.5459,0,0,4.5691,4.5659,4.5669,4.5664,4.5645,4.5655,4.5678,4.5678,4.5686,4.568,4.5698,4.5711,4.5681,4.568,4.5654,4.5675,4.5743,4.564,4.5639,4.566,4.5806,4.5831,4.5844,4.5721,4.5723,4.5725,4.5807,0,4.5772,4.5807,4.5774,4.5816,4.5829,4.578,4.58,4.5791,4.5773,4.5782,4.5763,4.5773,4.5732,4.5731,4.575,4.5731,4.5772,4.5725,4.5739,4.574,4.5744,4.5858,4.5884,4.5962,4.5817,4.5819,4.582,0,4.5871,4.5869,4.5913,4.5892,4.5895,4.5914,4.5912,4.592,4.591,4.5896,4.5894,4.5863,4.5884,4.5839,4.5868,4.5837,4.5841,4.5833,4.5835,4.5835,4.5785,4.5862,4.5986,4.5998,4.5836,4.5834,4.5833,0,4.5963,4.5972,4.5999,4.5997,4.5972,4.5986,4.5977,4.5964,4.5967,4.5966,4.5967,4.5969,4.597,4.5973,4.5943,4.5912,4.5977,4.5928,4.5966,4.5967,4.5982,4.5982,4.611,4.5984,4.5984,4.5984,4.5984,0,4.6057,4.6086,4.6041,4.6058,4.6089,4.6051,4.6083,4.6069,4.6057,4.6071,4.603,4.6044,4.6003,4.6014,4.5991,4.6019,4.602,4.601,4.6003,4.6014,4.6015,4.6016,4.601,4.5987,4.5986,4.5986,4.5985,0,4.6166,4.6136,4.6163,4.6138,4.6132,4.6157,4.6135,4.6151,4.6131,4.6149,4.6151,4.612,4.613,4.6101,4.6106,4.6091,4.6132,4.6117,4.6136,4.6132,4.6172,4.6169,4.6305,4.6321,4.6185,4.6187,4.6188,0,4.6228,4.6249,4.6226,4.6232,4.6225,4.6235,4.6238,4.6201,4.6206,4.6196,4.6213,4.6219,4.6222,4.6241,4.622,4.6224,4.6208,4.6256,4.6209,4.6219,4.621,4.6209,4.6212,4.6266,4.6268,4.6269,4.627,0,4.6342,4.6326,4.6331,4.6332,4.6336,4.6334,4.633,4.6338,4.6299,4.6306,4.6316,4.6318,4.6324,4.6331,4.6331,4.6322,4.629,4.6285,4.6294,4.6305,4.6316,4.6311,4.6163,4.6282,4.6281,4.628,4.6279,4.6279,4.6429,4.6446,4.6433,4.644,4.6433,4.643,4.6443,4.6425,4.6432,4.6433,4.6411,4.6426,4.6415,4.6411,4.6406,4.6417,4.6396,4.6409,4.6412,4.6416,4.6423,4.6314,4.6417,4.6417,4.6416,4.6416,4.6416,0,4.6542,4.6531,4.6538,4.6533,4.6539,4.6507,4.6501,4.6509,4.6522,4.6514,4.6518,4.653,4.6537,4.6516,4.652,4.6534,4.6519,4.6536,4.6535,4.6534,4.6442,4.6434,4.6548,4.6548,4.6548,4.6548,4.6548,4.6548,4.6601,4.6628,4.6611,4.6634,4.6623,4.6636,4.6635,4.6633,4.6627,4.6641,4.6647,4.6633,4.6621,4.6624,4.6629,4.6623,4.6627,4.6649,4.6638,4.6553,4.654,4.6528,4.652,4.665,4.665,4.6729,4.6729,4.673]}]]